Location: Corte Bragagnani
(45.3000°N, 11.1000°E)
Time: 23:18:18
(UTC+00:00)

Cosmos 2344 - Pass Details

Date: 09 April 2020
Orbit: 1251 x 2991 km, 63.3° (Epoch: 03 June)

Event Time Altitude Azimuth Distance (km) Brightness Sun altitude
Rises 22:24:59 0° 320° (NW) 4,707 7.4 -35.4°
Reaches altitude 10° 22:27:39 10° 318° (NW) 3,875 6.7 -35.5°
Maximum altitude 22:37:28 70° 238° (WSW) 2,133 4.4 -35.9°
Enters shadow 22:38:45 66° 204° (SSW) 2,233 4.4 -36.0°
